Wind_Speed
71 71 71 70 69 68 68 67 67 65 61 59 60 60 62 63 64 64 63 63 62 62 63 63 63 63 64 64 65 66 66 67 67 67 68 68 69 70
70 70 69 69 68 68 68 67 67 66 62 59 61 61 63 63 64 64 64 64 63 63 63 63 63 64 65 65 66 66 67 68 68 69 69 70 71 72
69 69 68 69 68 68 68 68 67 67 64 61 63 63 64 64 65 66 65 64 64 64 64 65 65 65 65 66 67 68 68 68 69 69 70 71 72 73
68 68 68 69 68 68 68 67 66 66 65 62 63 64 64 65 66 66 65 65 65 65 65 65 65 65 66 66 67 68 69 69 69 70 71 73 74 74
67 67 67 67 66 66 66 65 65 65 65 64 64 65 65 65 66 66 65 65 66 66 66 65 66 66 67 67 68 69 69 70 71 71 72 73 74 75
66 65 65 65 64 64 65 65 65 65 66 65 65 65 64 65 66 65 66 66 66 66 66 66 66 66 66 67 68 69 70 70 71 72 72 74 75 76
64 63 62 62 63 63 63 63 64 65 65 65 65 64 64 65 65 65 65 65 64 64 64 65 65 65 66 67 68 69 69 70 71 72 73 74 76 77
62 61 61 61 61 62 63 63 64 64 64 64 64 64 63 64 64 65 64 64 63 63 65 64 65 65 65 67 68 69 70 71 72 73 74 75 76 77
59 59 59 59 60 61 62 63 63 63 63 63 63 62 62 63 64 64 64 64 62 63 65 64 64 64 65 67 68 68 69 70 72 73 73 73 73 74
56 57 58 59 60 61 61 61 61 61 62 62 62 61 61 62 63 63 64 63 62 63 64 64 63 64 65 65 66 67 68 69 70 70 70 70 71 72
55 56 57 58 59 61 60 60 60 60 61 62 62 61 60 61 61 62 62 62 61 61 63 63 62 64 64 63 63 64 65 65 67 68 68 68 69 70
53 54 56 56 57 58 59 59 59 59 60 60 60 60 59 59 59 60 60 61 61 60 60 62 62 64 63 60 60 60 60 62 64 66 66 67 67 67
52 53 54 55 56 57 58 57 57 58 58 57 56 56 56 56 57 58 59 60 60 59 59 61 61 62 62 59 56 56 57 59 61 63 64 64 62 62
50 51 52 53 54 55 55 55 55 55 54 54 53 53 54 54 55 56 57 58 58 58 58 59 59 59 59 57 54 53 55 57 59 60 60 59 58 58
49 50 51 52 52 53 53 53 53 53 52 52 51 51 52 53 54 54 55 55 55 55 55 56 56 56 56 55 53 52 53 54 56 56 56 54 53 53
48 48 49 50 50 50 50 50 51 51 50 49 49 49 49 50 50 51 51 52 52 50 51 52 53 54 53 52 52 50 51 52 51 51 50 48 47 46
46 47 47 47 48 48 47 48 48 48 48 48 47 47 48 48 48 49 49 49 48 47 47 50 51 51 51 50 50 49 50 49 48 46 45 43 41 41
44 43 43 44 44 44 44 44 45 46 46 46 46 46 46 46 46 46 46 46 45 45 45 46 47 48 48 48 49 48 47 46 44 43 42 40 36 36
41 40 40 40 40 41 41 42 42 43 43 43 43 43 43 43 43 43 43 43 43 43 43 44 45 46 46 44 43 46 45 42 40 39 37 35 32 31
39 38 38 38 37 38 38 38 38 38 38 39 39 39 39 39 39 40 40 40 40 40 40 41 43 44 44 42 39 39 42 40 38 35 33 31 27 25
37 36 36 36 36 35 35 34 34 33 34 34 34 35 35 36 36 37 37 38 38 38 38 39 41 42 41 39 36 35 37 37 34 31 28 26 23 22
35 35 35 34 34 33 32 30 29 29 30 30 31 32 33 34 34 35 35 35 36 36 36 36 37 37 36 35 33 32 32 32 29 26 23 22 21 21
33 33 33 32 31 30 29 28 28 28 29 29 30 31 32 32 32 32 33 33 33 32 32 32 32 32 32 32 30 29 28 26 24 22 20 18 19 21
Wind_Direction
277 277 278 278 278 279 279 279 279 279 278 278 279 279 280 280 280 279 279 278 278 277 276 276 275 274 273 272 272 271 271 270 269 268 267 266 264 263
277 277 277 277 277 277 278 279 279 279 278 278 278 278 279 280 279 279 278 278 277 277 277 276 276 276 275 274 273 273 272 271 270 269 268 266 266 265
277 276 276 276 276 276 277 278 278 278 278 277 277 278 279 279 278 278 278 277 277 277 277 277 277 276 276 275 275 274 273 272 271 270 269 268 267 266
277 276 276 275 275 276 276 277 277 277 278 278 278 278 278 278 278 278 277 277 277 277 277 277 277 276 276 276 276 275 274 273 273 272 271 270 269 268
276 276 275 275 275 275 275 276 276 276 276 277 277 277 277 277 277 277 277 277 277 277 276 277 277 277 277 277 276 276 275 275 274 274 273 272 271 270
276 275 275 274 274 274 275 275 275 275 276 277 277 277 277 277 277 276 276 276 276 276 276 276 277 277 278 278 277 276 276 276 276 275 275 274 273 272
276 275 274 274 274 274 275 275 275 275 276 277 277 277 276 276 276 275 275 275 275 276 276 277 277 278 278 278 278 278 278 278 277 277 276 276 275 274
276 275 274 273 274 274 275 275 275 275 276 277 277 277 276 275 275 274 274 274 275 276 276 277 278 278 278 278 278 278 279 279 278 278 278 277 277 276
276 275 274 274 274 275 276 276 276 276 276 276 277 276 275 274 274 274 274 275 276 276 276 278 278 278 278 279 279 280 280 279 279 279 279 278 278 277
277 275 274 275 275 276 276 277 277 277 277 277 276 276 275 275 274 274 274 275 276 276 277 278 278 278 279 279 280 280 280 280 280 279 279 279 278 278
278 277 277 276 276 276 276 276 277 277 277 277 277 276 275 275 274 274 274 275 276 277 278 279 278 279 279 280 281 281 280 280 279 279 280 280 280 279
280 279 279 278 277 277 277 277 277 277 276 277 276 276 276 275 275 275 275 275 276 277 278 279 279 280 280 280 281 281 280 280 281 281 282 282 281 280
281 280 279 279 278 278 278 278 278 277 277 276 276 276 276 276 275 276 276 276 277 277 278 279 280 280 281 281 280 281 280 280 281 282 283 283 281 280
282 281 281 280 280 280 279 279 278 277 277 276 276 276 276 275 275 276 276 277 278 279 279 280 281 281 282 282 282 282 282 282 283 283 283 282 281 281
285 284 283 282 282 281 279 278 277 277 277 276 275 275 275 275 276 276 277 278 279 280 280 281 282 282 283 284 285 284 283 283 284 284 284 282 281 281
288 287 286 284 283 282 280 278 278 278 277 276 276 275 275 276 276 277 278 279 280 281 281 282 283 284 285 286 287 287 286 286 285 284 283 282 282 280
290 289 288 287 285 284 282 279 278 277 277 277 276 275 276 276 277 278 279 280 281 281 281 282 284 285 286 288 289 288 288 288 286 284 283 282 281 278
293 292 291 290 288 286 284 282 280 278 277 277 276 276 276 277 278 278 280 281 281 282 282 282 284 285 287 289 290 290 289 289 286 284 283 282 278 276
297 297 295 293 291 288 286 284 282 280 278 277 276 276 277 278 278 280 281 282 283 283 283 284 285 286 288 288 288 290 290 288 286 283 282 281 278 274
300 299 298 296 295 293 291 288 285 282 279 278 277 277 278 279 280 281 282 283 283 283 284 285 287 288 289 289 288 288 288 288 285 282 280 279 276 267
302 301 300 298 297 296 293 290 287 284 281 279 278 279 280 281 282 282 283 284 285 285 286 287 288 290 291 290 290 288 287 287 284 281 278 275 265 254
304 303 301 299 298 297 295 293 289 286 283 281 281 282 282 283 284 284 285 286 287 287 288 289 290 291 292 292 291 289 286 284 280 278 274 267 252 240
308 306 304 301 300 298 296 294 291 288 286 285 284 285 285 286 285 286 287 288 288 289 290 290 291 292 293 293 293 291 287 280 273 268 263 256 242 222
Height
5609 5606 5602 5600 5596 5593 5589 5586 5582 5581 5583 5582 5578 5574 5569 5565 5563 5560 5559 5557 5556 5554 5553 5552 5550 5549 5549 5548 5548 5548 5548 5548 5549 5550 5551 5552 5553 5555
5590 5586 5584 5581 5577 5573 5570 5567 5563 5561 5562 5565 5560 5555 5551 5547 5544 5542 5540 5538 5537 5535 5533 5532 5530 5529 5528 5527 5526 5526 5526 5526 5526 5527 5528 5529 5530 5532
5570 5566 5564 5560 5557 5554 5550 5547 5545 5541 5541 5545 5540 5536 5532 5528 5525 5522 5520 5519 5517 5515 5513 5512 5510 5509 5507 5506 5505 5504 5504 5503 5503 5504 5504 5505 5506 5508
5550 5546 5544 5540 5537 5534 5530 5528 5525 5522 5521 5523 5520 5516 5513 5509 5505 5502 5500 5499 5498 5496 5493 5492 5490 5488 5486 5484 5483 5482 5481 5480 5480 5480 5481 5481 5482 5482
5529 5526 5523 5519 5517 5514 5510 5508 5505 5503 5501 5501 5501 5496 5493 5489 5485 5483 5481 5479 5477 5475 5473 5471 5469 5467 5465 5463 5461 5459 5458 5457 5457 5456 5455 5455 5455 5456
5509 5505 5503 5499 5497 5493 5491 5489 5486 5483 5481 5480 5479 5477 5473 5469 5465 5464 5461 5458 5457 5455 5453 5451 5449 5446 5444 5441 5439 5437 5435 5433 5432 5431 5430 5429 5428 5428
5488 5485 5482 5479 5476 5473 5471 5469 5465 5463 5461 5459 5458 5456 5453 5449 5446 5442 5440 5438 5437 5435 5433 5431 5428 5426 5423 5419 5416 5414 5412 5410 5408 5406 5404 5402 5401 5400
5469 5465 5462 5459 5456 5453 5451 5449 5446 5444 5442 5439 5437 5435 5433 5429 5425 5422 5420 5418 5419 5416 5412 5411 5407 5406 5402 5398 5395 5392 5389 5386 5383 5380 5378 5376 5373 5371
5448 5445 5443 5440 5436 5434 5431 5428 5426 5424 5422 5420 5417 5416 5412 5408 5404 5402 5400 5399 5399 5396 5391 5392 5388 5385 5382 5378 5374 5370 5366 5362 5359 5356 5352 5349 5346 5343
5429 5426 5423 5421 5417 5414 5412 5410 5408 5405 5401 5398 5398 5396 5392 5388 5384 5382 5380 5379 5379 5376 5371 5371 5368 5364 5361 5358 5353 5348 5344 5339 5335 5331 5328 5324 5321 5317
5410 5407 5404 5402 5398 5394 5393 5392 5390 5386 5381 5378 5376 5375 5372 5369 5365 5362 5361 5359 5359 5357 5352 5349 5348 5343 5341 5338 5333 5327 5322 5317 5312 5308 5304 5300 5296 5291
5392 5388 5385 5382 5379 5375 5373 5372 5371 5367 5362 5359 5356 5354 5352 5349 5346 5344 5342 5339 5339 5338 5334 5329 5326 5321 5321 5320 5313 5307 5301 5296 5290 5285 5281 5276 5270 5265
5374 5371 5367 5363 5361 5357 5354 5353 5351 5347 5343 5341 5338 5336 5334 5331 5328 5325 5323 5320 5319 5318 5315 5309 5306 5301 5298 5299 5296 5289 5283 5277 5270 5265 5259 5253 5248 5242
5357 5354 5350 5346 5343 5339 5336 5334 5331 5327 5325 5323 5321 5319 5316 5314 5310 5307 5305 5302 5300 5298 5294 5289 5286 5282 5279 5277 5276 5272 5264 5257 5250 5245 5239 5234 5228 5222
5340 5336 5333 5329 5325 5322 5318 5315 5312 5309 5307 5306 5304 5302 5299 5296 5293 5290 5287 5285 5283 5280 5276 5271 5267 5264 5260 5258 5256 5252 5246 5240 5232 5225 5219 5215 5210 5205
5324 5320 5316 5311 5308 5304 5301 5298 5295 5293 5291 5289 5287 5285 5282 5280 5277 5274 5271 5268 5266 5264 5259 5254 5250 5246 5243 5240 5236 5233 5227 5221 5215 5208 5202 5198 5193 5188
5309 5305 5300 5295 5291 5288 5284 5281 5279 5276 5274 5273 5271 5269 5267 5264 5262 5259 5256 5253 5251 5249 5245 5239 5234 5230 5227 5223 5219 5215 5209 5204 5198 5192 5187 5183 5179 5174
5294 5290 5285 5280 5276 5272 5269 5266 5263 5260 5258 5257 5255 5253 5251 5249 5247 5244 5241 5239 5236 5233 5230 5225 5220 5216 5212 5208 5203 5197 5193 5188 5183 5177 5172 5169 5167 5163
5280 5276 5271 5266 5262 5258 5254 5251 5248 5246 5243 5242 5240 5238 5237 5235 5233 5230 5227 5225 5222 5219 5215 5211 5206 5201 5198 5196 5192 5183 5177 5173 5169 5165 5160 5156 5155 5152
5268 5263 5258 5254 5249 5245 5241 5237 5234 5232 5230 5228 5227 5225 5223 5221 5219 5217 5214 5211 5208 5206 5202 5198 5193 5188 5183 5181 5178 5173 5164 5159 5156 5153 5150 5147 5145 5143
5257 5252 5247 5242 5238 5233 5229 5226 5223 5220 5218 5216 5215 5213 5211 5209 5207 5204 5202 5199 5196 5193 5190 5186 5180 5175 5171 5167 5165 5161 5154 5148 5144 5142 5140 5138 5137 5137
5246 5241 5236 5231 5227 5223 5219 5216 5213 5210 5208 5206 5204 5202 5200 5198 5195 5193 5190 5187 5184 5181 5177 5174 5169 5164 5159 5155 5152 5149 5145 5140 5136 5133 5132 5131 5130 5132
5237 5231 5226 5222 5217 5213 5210 5207 5204 5202 5199 5197 5195 5192 5190 5187 5184 5182 5179 5176 5173 5170 5166 5162 5158 5154 5150 5146 5142 5139 5135 5131 5129 5127 5127 5125 5126 5128